Terminal Aerodrome Forecast
Issued by NWS Twin Cities, MN

Home | Current Version | Previous Version | Graphics & Text | Print | Product List | Glossary On
Versions: 1 2 3 4 5 6 7 8 9 10 11 12 13 14 15 16 17 18 19 20 21 22 23 24 25 26 27 28 29 30 31 32 33 34
000
FTUS43 KMPX 021821 AAA
TAFMSP
TAF AMD
KMSP 021821Z 0218/0324 08010KT P6SM BKN040
     FM022200 11009KT P6SM SCT050
     FM030100 13005KT P6SM FEW150
     FM030400 13004KT 6SM BR FEW008 SCT150
     FM030600 12004KT 4SM BR OVC008
     FM031500 14006KT P6SM SCT010 BKN025
     FM031700 16010KT P6SM SCT040=

USA.gov is the U.S. government's official web portal to all federal, state and local government web resources and services.